This is the latest recevied weather packets stored in our database for station/object KI7MOQ. If no packets are shown the sender has not sent any weather packets the latest 10 day(s).
| Time | Temp. | Humidity | Pressure | Rain* | Wind** | Luminosity | Snow |
|---|---|---|---|---|---|---|---|
| 1778011930 | 15.56° C | 79% | 1019.3 hPa | 0 mm | - | 44 W/m² | - |
| 1778011628 | 15.56° C | 79% | 1019.2 hPa | 0 mm | - | 52 W/m² | - |
| 1778011325 | 15° C | 80% | 1019.2 hPa | 0 mm | - | 61 W/m² | - |
| 1778011020 | 15° C | 79% | 1019.1 hPa | 0 mm | - | 78 W/m² | - |
| 1778010718 | 15.56° C | 79% | 1019.2 hPa | 0 mm | - | 61 W/m² | - |
| 1778010415 | 15.56° C | 78% | 1019.2 hPa | 0 mm | - | 56 W/m² | - |
| 1778010111 | 16.11° C | 78% | 1019.4 hPa | 0 mm | - | 56 W/m² | - |
| 1778009808 | 15.56° C | 77% | 1019.3 hPa | 0 mm | - | 66 W/m² | - |
| 1778009505 | 15.56° C | 78% | 1019.2 hPa | 0 mm | - | 69 W/m² | - |
| 1778009203 | 15.56° C | 77% | 1019.3 hPa | 0 mm | - | 60 W/m² | - |
| 1778008901 | 15.56° C | 77% | 1019.1 hPa | 0 mm | - | 59 W/m² | - |
| 1778008599 | 15.56° C | 77% | 1019.2 hPa | 0 mm | - | 67 W/m² | - |
| 1778008297 | 15.56° C | 76% | 1019.3 hPa | 0 mm | - | 76 W/m² | - |
| 1778007992 | 15.56° C | 77% | 1019.2 hPa | 0 mm | - | 92 W/m² | - |
| 1778007688 | 15.56° C | 77% | 1019.1 hPa | 0 mm | - | 88 W/m² | - |
| 1778007385 | 15.56° C | 78% | 1019.3 hPa | 0 mm | - | 89 W/m² | - |
| 1778007081 | 15° C | 79% | 1019.2 hPa | 0 mm | - | 86 W/m² | - |
| 1778006778 | 15° C | 79% | 1019.2 hPa | 0 mm | - | 75 W/m² | - |
| 1778006475 | 15° C | 80% | 1019.1 hPa | 0 mm | - | 76 W/m² | - |
| 1778006171 | 15° C | 79% | 1019.3 hPa | 0 mm | - | 66 W/m² | - |
| 1778005869 | 15° C | 79% | 1019.2 hPa | 0 mm | - | 57 W/m² | - |
| 1778005565 | 15° C | 79% | 1019.2 hPa | 0 mm | - | 73 W/m² | - |
| 1778005262 | 15° C | 79% | 1019.2 hPa | 0 mm | - | 62 W/m² | - |
| 1778004959 | 15° C | 79% | 1019.4 hPa | 0 mm | - | 72 W/m² | - |
| 1778004656 | 15° C | 79% | 1019.3 hPa | 0 mm | - | 77 W/m² | - |
* Rain latest hour (hover to see other rain measurements)
** Current wind speed in m/s (hover to see current wind gust speed)